EW5860 Weather Reports


time (UTC)temp
F
wind
direction
speed
knots
gust
knots
rain 1hr
in
rain 24hr
in
rain mn
in
humidity
%
barometer
mb
20260503011531 48 213 0.0 0.0 0.00 0.00 0.00 58 1012.5
20260503010031 49 213 0.0 0.9 0.00 0.00 0.00 59 1012.3
20260503004535 50 213 0.0 0.0 0.00 0.00 0.00 54 1012.1
20260503003042 51 212 0.0 0.9 0.00 0.00 0.00 51 1012.0
20260503001540 52 252 0.0 2.6 0.00 0.00 0.00 48 1011.9
20260503000031 53 246 0.0 1.7 0.00 0.00 0.00 47 1011.8
20260502234538 53 244 0.0 1.7 0.00 0.00 0.00 46 1011.6
20260502233038 54 282 0.0 7.0 0.00 0.00 0.00 44 1011.4
20260502231528 54 261 0.9 4.3 0.00 0.00 0.00 43 1011.4
20260502230032 55 253 3.5 7.8 0.00 0.00 0.00 41 1011.5
20260502224527 55 300 2.6 7.8 0.00 0.00 0.00 41 1011.5
20260502223037 56 281 1.7 7.8 0.00 0.00 0.00 40 1011.3
20260502221526 56 269 1.7 7.0 0.00 0.00 0.00 37 1011.3
20260502220025 58 248 1.7 7.0 0.00 0.00 0.00 37 1011.2
20260502214524 57 345 0.9 7.8 0.00 0.00 0.00 38 1011.2
20260502213025 57 249 0.0 7.8 0.00 0.00 0.00 41 1011.2
20260502211524 59 47 1.7 7.0 0.00 0.00 0.00 37 1011.0
20260502210025 58 49 0.9 7.8 0.00 0.00 0.00 38 1010.8
20260502204522 58 323 1.7 10.4 0.00 0.00 0.00 40 1010.7
20260502203020 57 262 3.5 12.2 0.00 0.00 0.00 39 1010.9
20260502201519 59 335 0.9 7.8 0.00 0.00 0.00 42 1010.8
20260502200018 58 35 1.7 7.0 0.00 0.00 0.00 40 1011.0
20260502194528 57 244 2.6 8.7 0.00 0.00 0.00 38 1011.1
20260502193014 57 22 1.7 10.4 0.00 0.00 0.00 39 1011.5
20260502191513 58 259 0.9 5.2 0.00 0.00 0.00 41 1011.7
20260502190012 58 51 1.7 7.0 0.00 0.00 0.00 39 1012.0
20260502184510 58 231 2.6 7.8 0.00 0.00 0.00 41 1012.2
20260502183008 56 259 2.6 7.0 0.00 0.00 0.00 43 1012.3
20260502181518 56 267 4.3 10.4 0.00 0.00 0.00 43 1012.5
20260502163102 55 351 0.9 3.5 0.00 0.00 0.00 52 1013.0
20260502161603 54 199 0.9 7.8 0.00 0.00 0.00 52 1013.2
20260502151606 53 254 0.9 9.6 0.00 0.00 0.00 57 1013.3
20260502123047 47 312 0.9 6.1 0.00 0.00 0.00 80 1013.5
20260502121538 47 298 0.9 5.2 0.00 0.00 0.00 83 1013.3
20260502114535 46 313 0.9 7.0 0.00 0.00 0.00 85 1013.2
20260502113033 47 269 0.0 5.2 0.00 0.00 0.00 85 1012.9
20260502111532 47 272 1.7 8.7 0.00 0.00 0.00 85 1012.9
20260502110030 47 226 1.7 9.6 0.00 0.00 0.00 85 1012.7
20260502104531 48 340 2.6 7.8 0.00 0.00 0.00 87 1012.5
20260502103026 48 262 1.7 7.0 0.00 0.00 0.00 88 1012.3
20260502101525 48 267 2.6 7.8 0.00 0.00 0.00 88 1012.2
20260502091521 46 250 0.0 3.5 0.00 0.00 0.00 92 1012.0
20260502071506 50 325 0.0 0.0 0.00 0.00 0.00 84 1012.0
20260502070005 50 325 0.0 0.0 0.00 0.00 0.00 84 1011.8
20260502064504 50 336 0.0 0.9 0.00 0.00 0.00 83 1011.8
20260502063003 50 173 0.0 0.0 0.00 0.00 0.00 83 1012.0
20260502061502 51 41 0.0 1.7 0.00 0.00 0.00 82 1012.0
20260502060059 51 42 0.0 1.7 0.00 0.00 0.00 81 1012.3
20260502054557 52 9 0.0 3.5 0.00 0.00 0.00 79 1012.4
20260502053104 52 44 0.0 3.5 0.00 0.00 0.00 76 1012.4
20260502051555 53 261 0.9 5.2 0.00 0.00 0.00 76 1012.5
20260502050052 52 202 0.9 2.6 0.00 0.00 0.00 77 1012.3
20260502044552 52 219 0.9 3.5 0.00 0.00 0.00 78 1012.1
20260502043058 53 219 0.9 3.5 0.00 0.00 0.00 77 1012.1
20260502041553 53 254 0.9 2.6 0.00 0.00 0.00 75 1012.3
20260502040046 53 234 0.9 5.2 0.00 0.00 0.00 75 1012.1
20260502034546 53 205 0.9 2.6 0.00 0.00 0.00 74 1011.8
20260502033043 53 249 0.0 1.7 0.00 0.00 0.00 74 1011.6
20260502031548 53 244 0.9 5.2 0.00 0.00 0.00 72 1011.5
20260502030043 53 205 0.9 4.3 0.00 0.00 0.00 72 1011.8
20260502024550 53 220 0.9 2.6 0.00 0.00 0.00 69 1011.8
20260502023041 54 205 0.0 3.5 0.00 0.00 0.00 68 1011.7
20260502021541 53 241 0.0 3.5 0.00 0.00 0.00 68 1012.2
20260502020041 52 244 0.0 0.9 0.00 0.00 0.00 70 1012.0
20260502014540 52 244 0.0 0.9 0.00 0.00 0.00 70 1011.8
20260502013040 52 250 0.0 0.9 0.00 0.00 0.00 70 1011.4